{"data":{"norad_id":64570,"intl_designator":"2025-135AU","name":"ICEYE-X54","alt_names":[],"object_type":"PAYLOAD","status":"ACTIVE","operator":null,"country":"FIN","launch_date":"2025-06-23","launch_site_code":"AFWTR","launch_vehicle":null,"mission":null,"orbit_class":"UNKNOWN","rcs_meters":null,"size_class":null,"mass_kg":null,"dimensions":null,"purposes":[],"wikipedia_slug":null,"has_3d_model":false,"image_url":null,"decayed_at":null,"tle_current":{"epoch":"2026-05-25T04:37:37.481952Z","epoch_age_seconds":55447,"freshness":"FRESH","line1":"1 64570U 25135AU  26145.19279493  .00003017  00000+0  28555-3 0  9998","line2":"2 64570  97.7692 259.8463 0003062  59.5863 300.5659 14.94389807 50464","mean_motion":14.94389807,"eccentricity":0.0003062,"inclination_deg":97.7692,"raan_deg":259.8463,"arg_perigee_deg":59.5863,"mean_anomaly_deg":300.5659,"bstar":0.00028555,"rev_number":5046,"period_min":96.360400295477,"perigee_km":582.13548915347,"apogee_km":586.39926559418,"semimajor_km":6962.4043773738,"source":"CELESTRAK","updated_at":"2026-05-25T13:38:04.620513Z"}}}